{"data":{"norad_id":66291,"epoch":"2026-09-20T13:00:18.340416Z","epoch_age_seconds":93048,"freshness":"FRESH","line1":"1 66291U 25247AC  26263.54187894  .00026459  00000+0  79126-3 0  9992","line2":"2 66291  53.1615   1.6015 0001178  82.2422 277.8715 15.34407661 50972","mean_motion":15.34407661,"eccentricity":0.0001178,"inclination_deg":53.1615,"raan_deg":1.6015,"arg_perigee_deg":82.2422,"mean_anomaly_deg":277.8715,"bstar":0.00079126,"rev_number":5097,"period_min":93.847289517671,"perigee_km":461.87462189737,"apogee_km":463.48631849335,"semimajor_km":6840.8174701954,"source":"CELESTRAK","updated_at":"2026-09-21T09:00:35.872202Z"}}